Greenville, SC

2:25 PM EST on February 23, 2017 (GMT -0500)
Greenville Downtown

Weather History for KGMU - May, 2012

Change the Weather History Date:

Saturday, May 12, 2012

  Actual Average Record
Temperature  
Mean Temperature 65 °F -  
Max Temperature 73 °F 77 °F 90 °F (2014)
Min Temperature 57 °F 56 °F 46 °F (2006)
Growing Degree Days 15 (Base 50)    
Moisture  
Dew Point 53 °F    
Average Humidity 62    
Maximum Humidity 72    
Minimum Humidity 55    
Precipitation  
Precipitation 0.00 in - - ()
Sea Level Pressure  
Sea Level Pressure 30.27 in    
Wind  
Wind Speed 4 mph (East)    
Max Wind Speed 7 mph    
Max Gust Speed -    
Visibility 10 miles    
Events      
Averages and records for this station are not official NWS values.
T = Trace of Precipitation, MM = Missing Value Source: NWS Daily Summary

Daily Weather History Graph

Daily Weather History Graph

Search for Another Location

Airport or City:

Trip Planner

Search our weather history database for the weather conditions in past years. The results will help you decide how hot, cold, wet, or windy it might be!

Date:

Astronomy

May. 12, 2012 Rise Set
Actual Time 6:28 AM EDT 8:23 PM EDT
Civil Twilight 6:00 AM EDT 8:51 PM EDT
Nautical Twilight 5:26 AM EDT 9:25 PM EDT
Astronomical Twilight 4:50 AM EDT 10:01 PM EDT
Moon 1:41 AM EDT (5/12) 1:00 PM EDT (5/12)
Length of Visible Light 14h 51m
Length of Day
13h 55m
Waning Gibbous, 53% of the Moon is Illuminated
May 12
Waning Gibbous
May 12
Last Quarter
May 20
New
May 28
First Quarter
Jun 4
Full

Hourly Weather History & Observations

Time (EDT) Temp. Dew Point Humidity Pressure Visibility Wind Dir Wind Speed Gust Speed Precip Events Conditions
12:53 AM 63.0 °F 48.0 °F 58% 30.22 in 10.0 mi ENE 3.5 mph - N/A   Clear
1:53 AM 62.1 °F 48.0 °F 60% 30.23 in 10.0 mi Calm Calm - N/A   Partly Cloudy
2:53 AM 63.0 °F 46.9 °F 56% 30.22 in 10.0 mi ENE 4.6 mph - N/A   Mostly Cloudy
3:53 AM 62.1 °F 46.0 °F 56% 30.23 in 10.0 mi Calm Calm - N/A   Clear
4:53 AM 57.9 °F 48.0 °F 70% 30.24 in 10.0 mi North 5.8 mph - N/A   Clear
5:53 AM 57.9 °F 48.9 °F 72% 30.26 in 10.0 mi NNE 5.8 mph - N/A   Mostly Cloudy
6:53 AM 60.1 °F 46.9 °F 62% 30.28 in 10.0 mi NE 3.5 mph - N/A   Overcast
7:53 AM 62.1 °F 46.9 °F 58% 30.32 in 10.0 mi East 5.8 mph - N/A   Overcast
8:53 AM 62.1 °F 48.9 °F 62% 30.33 in 10.0 mi ENE 4.6 mph - N/A   Mostly Cloudy
9:53 AM 63.0 °F 50.0 °F 63% 30.34 in 10.0 mi Calm Calm - N/A   Overcast
10:53 AM 66.0 °F 54.0 °F 65% 30.34 in 10.0 mi ESE 4.6 mph - N/A   Mostly Cloudy
11:53 AM 69.1 °F 57.0 °F 65% 30.34 in 10.0 mi Variable 3.5 mph - N/A   Partly Cloudy
12:53 PM 68.0 °F 55.0 °F 63% 30.32 in 10.0 mi SSE 4.6 mph - N/A   Overcast
1:53 PM 71.1 °F 57.0 °F 61% 30.30 in 10.0 mi Variable 4.6 mph - N/A   Overcast
2:53 PM 71.1 °F 57.0 °F 61% 30.28 in 10.0 mi SE 5.8 mph - N/A   Mostly Cloudy
3:53 PM 72.0 °F 57.0 °F 59% 30.27 in 10.0 mi SE 6.9 mph - N/A   Mostly Cloudy
4:53 PM 73.0 °F 55.9 °F 55% 30.25 in 10.0 mi ESE 6.9 mph - N/A   Mostly Cloudy
5:53 PM 72.0 °F 57.0 °F 59% 30.24 in 10.0 mi ESE 5.8 mph - N/A   Clear
6:53 PM 72.0 °F 55.0 °F 55% 30.23 in 10.0 mi ESE 6.9 mph - N/A   Clear
7:53 PM 70.0 °F 55.0 °F 59% 30.24 in 10.0 mi SE 5.8 mph - N/A   Partly Cloudy
8:53 PM 69.1 °F 55.9 °F 63% 30.25 in 10.0 mi East 5.8 mph - N/A   Clear
9:53 PM 66.9 °F 55.9 °F 68% 30.26 in 10.0 mi East 3.5 mph - N/A   Clear
10:53 PM 66.0 °F 55.9 °F 70% 30.26 in 10.0 mi East 3.5 mph - N/A   Clear
11:53 PM 64.9 °F 55.0 °F 70% 30.25 in 10.0 mi East 4.6 mph - N/A   Clear